Weather History for Truth Or Consequences, NM

Change the Weather History Date:

Sunday, August 4, 2013

  Actual Average Record
Temperature  
Mean Temperature 84 °F -  
Max Temperature 96 °F 90 °F 97 °F (2003)
Min Temperature 71 °F 67 °F 61 °F (1998)
Cooling Degree Days 18    
Month to date cooling degree days  
Year to date cooling degree days  
Since 1 June cooling degree days  
Growing Degree Days 34 (Base 50)    
Moisture  
Dew Point 51 °F    
Average Humidity 37    
Maximum Humidity 53    
Minimum Humidity 20    
Precipitation  
Precipitation 0.00 in - 0.50 in (1998)
Month to date precipitation T  
Year to date precipitation 3.90  
Sea Level Pressure  
Sea Level Pressure 29.89 in    
Wind  
Wind Speed 8 mph (West)    
Max Wind Speed 15 mph    
Max Gust Speed 21 mph    
Visibility 10 miles    
Events Thunderstorm    
T = Trace of Precipitation, MM = Missing Value Source: NWS Daily Summary

Daily Weather History Graph

Daily Weather History Graph

Search for Another Location

Airport:

Trip Planner

Search our weather history database for the weather conditions in past years. The results will help you decide how hot, cold, wet, or windy it might be!

Date:

Astronomy

Aug. 04, 2013 Rise Set
Actual Time 6:24 AM MDT 8:05 PM MDT
Civil Twilight 5:57 AM MDT 8:32 PM MDT
Nautical Twilight 5:25 AM MDT 9:04 PM MDT
Astronomical Twilight 4:50 AM MDT 9:38 PM MDT
Moon 4:28 AM MDT (8/4) 6:30 PM MDT (8/4)
Length of Visible Light 14h 34m
Length of Day
13h 41m
Waning Crescent, 4% of the Moon is Illuminated
Aug 4
Waning Crescent
Aug 6
New
Aug 14
First Quarter
Aug 20
Full
Aug 28
Last Quarter

Hourly Weather History & Observations

Time (MDT) Temp. Heat Index Dew Point Humidity Pressure Visibility Wind Dir Wind Speed Gust Speed Precip Events Conditions
12:53 AM 78.1 °F - 53.1 °F 42% 29.84 in 10.0 mi NW 8.1 mph - N/A   Clear
1:53 AM 77.0 °F - 53.1 °F 43% 29.84 in 10.0 mi WNW 9.2 mph - N/A   Clear
2:53 AM 75.9 °F - 53.1 °F 45% 29.84 in 10.0 mi NW 8.1 mph - N/A   Clear
3:53 AM 75.0 °F - 53.1 °F 46% 29.83 in 10.0 mi NW 9.2 mph - N/A   Clear
4:53 AM 73.0 °F - 53.1 °F 49% 29.84 in 10.0 mi WNW 8.1 mph - N/A   Clear
5:53 AM 71.1 °F - 53.1 °F 53% 29.86 in 10.0 mi NW 9.2 mph - N/A   Clear
6:53 AM 72.0 °F - 54.0 °F 53% 29.87 in 10.0 mi NW 4.6 mph - N/A   Clear
7:53 AM 75.9 °F - 54.0 °F 46% 29.88 in 10.0 mi NW 5.8 mph - N/A   Clear
8:53 AM 78.1 °F - 54.0 °F 43% 29.91 in 10.0 mi North 3.5 mph - N/A   Clear
9:53 AM 82.9 °F 82.0 °F 55.0 °F 38% 29.90 in 10.0 mi NE 9.2 mph - N/A   Clear
10:53 AM 86.0 °F 84.5 °F 55.0 °F 35% 29.90 in 10.0 mi East 8.1 mph - N/A   Clear
11:53 AM 88.0 °F - 52.0 °F 29% 29.88 in 10.0 mi SSE 8.1 mph - N/A   Clear
12:53 PM 91.0 °F - 51.1 °F 25% 29.85 in 10.0 mi Variable 6.9 mph - N/A   Clear
1:53 PM 93.0 °F - 48.9 °F 22% 29.83 in 10.0 mi SW 10.4 mph - N/A   Clear
2:53 PM 93.9 °F - 48.0 °F 21% 29.81 in 10.0 mi South 10.4 mph 16.1 mph N/A   Clear
3:53 PM 95.0 °F - 48.0 °F 20% 29.79 in 10.0 mi SSW 12.7 mph 20.7 mph N/A   Clear
4:53 PM 93.9 °F - 48.0 °F 21% 29.77 in 10.0 mi South 3.5 mph - N/A   Partly Cloudy
5:10 PM 93.2 °F - 48.2 °F 21% 30.06 in 10.0 mi SSW 8.1 mph - N/A Thunderstorm Partly Cloudy
5:27 PM 93.2 °F - 48.2 °F 21% 30.06 in 10.0 mi SSW 10.4 mph - N/A   Clear
5:53 PM 93.9 °F - 48.0 °F 21% 29.76 in 10.0 mi SW 10.4 mph 20.7 mph N/A   Clear
6:20 PM 93.2 °F - 46.4 °F 20% 30.04 in 10.0 mi South 6.9 mph 18.4 mph N/A Thunderstorm Clear
6:39 PM 93.2 °F - 46.4 °F 20% 30.04 in 10.0 mi SSW 9.2 mph - N/A Thunderstorm Clear
6:53 PM 91.0 °F - 46.9 °F 22% 29.76 in 10.0 mi SW 12.7 mph - N/A Thunderstorm Clear
7:00 PM 91.4 °F - 46.4 °F 21% 30.04 in 10.0 mi SW 12.7 mph - N/A   Clear
7:53 PM 90.0 °F - 48.9 °F 24% 29.77 in 10.0 mi SSW 5.8 mph - N/A   Mostly Cloudy
8:53 PM 88.0 °F - 50.0 °F 27% 29.79 in 10.0 mi WSW 3.5 mph - N/A Thunderstorm Mostly Cloudy
9:33 PM 84.2 °F - 48.2 °F 29% 30.09 in 10.0 mi NNW 12.7 mph 19.6 mph N/A   Mostly Cloudy
9:44 PM 84.2 °F - 48.2 °F 29% 30.10 in 10.0 mi NNW 8.1 mph - N/A Thunderstorm Mostly Cloudy
9:53 PM 84.0 °F - 46.9 °F 27% 29.81 in 10.0 mi NW 10.4 mph - N/A Thunderstorm Mostly Cloudy
10:14 PM 84.2 °F - 48.2 °F 29% 30.11 in 10.0 mi NNW 9.2 mph - N/A   Overcast
10:53 PM 80.1 °F 80.1 °F 55.0 °F 42% 29.84 in 10.0 mi NNE 8.1 mph - N/A   Clear
11:53 PM 78.1 °F - 55.0 °F 45% 29.83 in 10.0 mi NNW 4.6 mph - N/A   Clear